EW3608 Weather Reports


Display with metric or nautical units.
time (UTC)temp
F
wind
direction
speed
MPH
gust
MPH
rain 1hr
in
rain 24hr
in
rain mn
in
humidity
%
barometer
mb
20260902155011 78 104 2.0 7.0 0.00 0.00 0.00 37 1019.5
20260902154533 77 116 1.0 4.0 0.00 0.00 0.00 36 1019.6
20260902154017 77 44 1.0 6.0 0.00 0.00 0.00 38 1019.5
20260902153513 77 9 2.0 6.0 0.00 0.00 0.00 38 1019.3
20260902153008 76 101 1.0 4.0 0.00 0.00 0.00 38 1019.4
20260902152508 76 97 1.0 4.0 0.00 0.00 0.00 38 1019.4
20260902152011 75 38 2.0 4.0 0.00 0.00 0.00 41 1019.3
20260902151525 74 98 1.0 5.0 0.00 0.00 0.00 41 1019.3
20260902151004 74 39 2.0 5.0 0.00 0.00 0.00 40 1019.3
20260902150504 73 52 2.0 5.0 0.00 0.00 0.00 41 1019.2
20260902150007 72 109 0.0 4.0 0.00 0.00 0.00 45 1019.2
20260902145504 72 279 1.0 3.0 0.00 0.00 0.00 49 1019.2
20260902145007 71 85 1.0 3.0 0.00 0.00 0.00 49 1019.1
20260902144520 70 344 1.0 3.0 0.00 0.00 0.00 49 1019.1
20260902144011 70 332 1.0 3.0 0.00 0.00 0.00 51 1019.2
20260902143513 68 336 1.0 2.0 0.00 0.00 0.00 51 1019.0
20260902143003 68 5 0.0 2.0 0.00 0.00 0.00 52 1019.1
20260902142503 66 22 0.0 2.0 0.00 0.00 0.00 54 1019.1
20260902142003 66 94 0.0 2.0 0.00 0.00 0.00 55 1019.1
20260902141508 65 234 0.0 2.0 0.00 0.00 0.00 55 1019.0
20260902141007 64 53 1.0 3.0 0.00 0.00 0.00 57 1019.1
20260902140507 64 59 1.0 3.0 0.00 0.00 0.00 59 1019.0
20260902140019 63 98 1.0 3.0 0.00 0.00 0.00 59 1019.1
20260902135514 63 57 1.0 3.0 0.00 0.00 0.00 58 1019.2
20260902135003 62 38 2.0 3.0 0.00 0.00 0.00 61 1019.1
20260902134509 61 182 0.0 3.0 0.00 0.00 0.00 58 1019.1
20260902134004 61 182 0.0 3.0 0.00 0.00 0.00 59 1019.1
20260902133506 61 5 0.0 2.0 0.00 0.00 0.00 60 1019.1
20260902133011 60 348 0.0 2.0 0.00 0.00 0.00 60 1019.0
20260902132511 59 338 0.0 2.0 0.00 0.00 0.00 61 1019.0
20260902132012 59 283 0.0 3.0 0.00 0.00 0.00 60 1018.9
20260902131526 58 232 1.0 3.0 0.00 0.00 0.00 59 1018.8
20260902131004 58 188 0.0 2.0 0.00 0.00 0.00 63 1018.8
20260902130504 57 219 0.0 2.0 0.00 0.00 0.00 64 1018.7
20260902130006 57 254 0.0 2.0 0.00 0.00 0.00 65 1018.7
20260902125507 57 290 0.0 2.0 0.00 0.00 0.00 66 1018.7
20260902125007 57 283 0.0 2.0 0.00 0.00 0.00 65 1018.6
20260902124517 57 227 0.0 2.0 0.00 0.00 0.00 64 1018.6
20260902124010 57 232 0.0 2.0 0.00 0.00 0.00 65 1018.7
20260902123513 57 243 0.0 2.0 0.00 0.00 0.00 65 1018.8
20260902123004 58 220 0.0 2.0 0.00 0.00 0.00 63 1018.7
20260902122504 58 213 0.0 2.0 0.00 0.00 0.00 62 1018.7
20260902122004 59 187 0.0 2.0 0.00 0.00 0.00 61 1018.7
20260902121511 59 190 0.0 2.0 0.00 0.00 0.00 58 1018.7
20260902121009 60 360 0.0 2.0 0.00 0.00 0.00 57 1018.6
20260902120513 60 360 0.0 2.0 0.00 0.00 0.00 58 1018.7
20260902120029 60 360 0.0 2.0 0.00 0.00 0.00 56 1018.6
20260902115516 61 352 0.0 2.0 0.00 0.00 0.00 54 1018.4
20260902115003 61 352 0.0 2.0 0.00 0.00 0.00 56 1018.4
20260902114507 61 352 0.0 2.0 0.00 0.00 0.00 54 1018.4
20260902114010 60 352 0.0 2.0 0.00 0.00 0.00 54 1018.4
20260902113506 60 336 0.0 2.0 0.00 0.00 0.00 54 1018.4
20260902113018 60 336 0.0 2.0 0.00 0.00 0.00 56 1018.3
20260902112510 60 240 0.0 2.0 0.00 0.00 0.00 56 1018.4
20260902112015 59 218 0.0 2.0 0.00 0.00 0.00 59 1018.4
20260902111526 59 244 0.0 2.0 0.00 0.00 0.00 60 1018.4
20260902111002 59 250 0.0 2.0 0.00 0.00 0.00 60 1018.4
20260902110506 60 210 0.0 2.0 0.00 0.00 0.00 58 1018.4
20260902110011 60 194 1.0 2.0 0.00 0.00 0.00 58 1018.5
20260902105507 60 189 1.0 2.0 0.00 0.00 0.00 57 1018.5
20260902105015 61 161 0.0 2.0 0.00 0.00 0.00 56 1018.5
20260902104532 61 71 0.0 2.0 0.00 0.00 0.00 56 1018.5
20260902104015 62 100 0.0 2.0 0.00 0.00 0.00 54 1018.5
20260902103514 62 90 0.0 2.0 0.00 0.00 0.00 54 1018.5
20260902103004 62 175 0.0 3.0 0.00 0.00 0.00 53 1018.5
20260902102506 62 232 1.0 3.0 0.00 0.00 0.00 53 1018.5
20260902102006 61 223 1.0 3.0 0.00 0.00 0.00 53 1018.4
20260902101515 61 202 1.0 3.0 0.00 0.00 0.00 56 1018.4
20260902101011 60 202 1.0 3.0 0.00 0.00 0.00 58 1018.4
20260902100513 61 224 0.0 3.0 0.00 0.00 0.00 59 1018.3
20260902100027 61 167 1.0 3.0 0.00 0.00 0.00 57 1018.3
20260902095518 62 200 0.0 2.0 0.00 0.00 0.00 57 1018.4
20260902095003 62 200 0.0 2.0 0.00 0.00 0.00 56 1018.3
20260902094506 63 200 0.0 2.0 0.00 0.00 0.00 53 1018.4
20260902094007 63 200 0.0 2.0 0.00 0.00 0.00 52 1018.3
20260902093510 63 200 0.0 2.0 0.00 0.00 0.00 51 1018.3
20260902090014 63 219 0.0 4.0 0.00 0.00 0.00 50 1018.4
20260902085513 63 205 1.0 2.0 0.00 0.00 0.00 52 1018.4
20260902085011 63 62 0.0 2.0 0.00 0.00 0.00 55 1018.4
20260902084530 63 46 1.0 2.0 0.00 0.00 0.00 55 1018.4
20260902084017 63 84 0.0 2.0 0.00 0.00 0.00 54 1018.4
20260902083521 63 167 0.0 2.0 0.00 0.00 0.00 54 1018.3
20260902083011 64 252 0.0 2.0 0.00 0.00 0.00 53 1018.3
20260902082507 65 252 0.0 2.0 0.00 0.00 0.00 51 1018.3
20260902082010 65 253 0.0 2.0 0.00 0.00 0.00 50 1018.3
20260902081521 66 257 0.0 2.0 0.00 0.00 0.00 48 1018.3
20260902081010 67 257 0.0 2.0 0.00 0.00 0.00 46 1018.3
20260902080514 68 257 0.0 1.0 0.00 0.00 0.00 44 1018.3
20260902080008 69 257 0.0 2.0 0.00 0.00 0.00 43 1018.2
20260902075503 69 257 0.0 2.0 0.00 0.00 0.00 41 1018.3
20260902075004 70 317 0.0 2.0 0.00 0.00 0.00 40 1018.3
20260902074511 70 342 0.0 6.0 0.00 0.00 0.00 39 1018.4
20260902074008 70 276 1.0 6.0 0.00 0.00 0.00 39 1018.3
20260902073511 70 236 0.0 3.0 0.00 0.00 0.00 39 1018.3
20260902073026 70 269 1.0 5.0 0.00 0.00 0.00 39 1018.2
20260902072515 71 171 1.0 5.0 0.00 0.00 0.00 39 1018.2
20260902072007 71 250 1.0 4.0 0.00 0.00 0.00 39 1018.2
20260902071504 71 262 2.0 6.0 0.00 0.00 0.00 39 1018.3
20260902071004 70 255 1.0 6.0 0.00 0.00 0.00 39 1018.3
20260902070505 70 274 1.0 5.0 0.00 0.00 0.00 39 1018.3
20260902070018 70 254 1.0 4.0 0.00 0.00 0.00 39 1018.3
20260902065511 70 262 1.0 3.0 0.00 0.00 0.00 39 1018.3
20260902065014 70 263 1.0 3.0 0.00 0.00 0.00 39 1018.3
20260902064528 70 246 1.0 3.0 0.00 0.00 0.00 39 1018.4
20260902064002 70 304 0.0 4.0 0.00 0.00 0.00 40 1018.3
20260902063508 70 265 1.0 4.0 0.00 0.00 0.00 40 1018.3
20260902063008 70 292 0.0 4.0 0.00 0.00 0.00 40 1018.3
20260902062508 70 265 1.0 3.0 0.00 0.00 0.00 40 1018.3
20260902062010 70 277 0.0 3.0 0.00 0.00 0.00 40 1018.4
20260902061525 69 277 0.0 4.0 0.00 0.00 0.00 40 1018.4
20260902061013 69 155 1.0 4.0 0.00 0.00 0.00 40 1018.5
20260902060513 69 255 1.0 3.0 0.00 0.00 0.00 40 1018.6
20260902060006 69 202 0.0 4.0 0.00 0.00 0.00 40 1018.6
20260902055506 69 317 1.0 4.0 0.00 0.00 0.00 40 1018.6
20260902055008 69 10 0.0 2.0 0.00 0.00 0.00 40 1018.7
20260902054516 69 332 0.0 2.0 0.00 0.00 0.00 40 1018.6
20260902054011 69 336 1.0 2.0 0.00 0.00 0.00 40 1018.7
20260902053513 69 247 0.0 2.0 0.00 0.00 0.00 40 1018.6
20260902053029 69 245 0.0 2.0 0.00 0.00 0.00 40 1018.5
20260902052518 69 250 1.0 2.0 0.00 0.00 0.00 41 1018.6
20260902052003 69 327 1.0 3.0 0.00 0.00 0.00 40 1018.7
20260902051508 69 13 0.0 3.0 0.00 0.00 0.00 40 1018.6
20260902051010 69 280 2.0 3.0 0.00 0.00 0.00 41 1018.5
20260902050508 69 250 0.0 2.0 0.00 0.00 0.00 41 1018.5
20260902050030 68 360 0.0 2.0 0.00 0.00 0.00 41 1018.7
20260902045515 68 305 0.0 2.0 0.00 0.00 0.00 41 1018.8
20260902045015 68 204 0.0 2.0 0.00 0.00 0.00 42 1018.8
20260902044531 68 287 0.0 2.0 0.00 0.00 0.00 43 1018.9
20260902044004 68 268 0.0 2.0 0.00 0.00 0.00 43 1018.9
20260902043503 68 261 0.0 2.0 0.00 0.00 0.00 45 1018.9
20260902043009 68 352 0.0 2.0 0.00 0.00 0.00 49 1018.9
20260902042507 68 352 0.0 2.0 0.00 0.00 0.00 47 1019.0
20260902042011 68 340 0.0 2.0 0.00 0.00 0.00 47 1019.0
20260902041540 68 305 0.0 2.0 0.00 0.00 0.00 48 1018.9
20260902041014 68 229 0.0 2.0 0.00 0.00 0.00 49 1018.9
20260902040514 69 229 0.0 2.0 0.00 0.00 0.00 52 1019.0
20260902040005 69 162 0.0 2.0 0.00 0.00 0.00 52 1019.0
20260902035504 70 155 0.0 2.0 0.00 0.00 0.00 52 1019.0
20260902035008 70 155 0.0 2.0 0.00 0.00 0.00 51 1019.1
20260902034513 71 155 0.0 2.0 0.00 0.00 0.00 51 1019.1
20260902034016 71 155 0.0 2.0 0.00 0.00 0.00 50 1019.1
20260902033515 71 210 0.0 2.0 0.00 0.00 0.00 48 1019.1
20260902033027 72 222 0.0 2.0 0.00 0.00 0.00 47 1018.9
20260902032517 72 221 0.0 2.0 0.00 0.00 0.00 46 1018.7
20260902032005 73 205 0.0 2.0 0.00 0.00 0.00 45 1018.7
20260902031511 73 205 0.0 2.0 0.00 0.00 0.00 45 1018.6
20260902031008 73 205 0.0 2.0 0.00 0.00 0.00 44 1018.6
20260902030513 74 205 0.0 2.0 0.00 0.00 0.00 42 1018.5
20260902030022 74 229 0.0 2.0 0.00 0.00 0.00 41 1018.7
20260902025516 75 229 0.0 2.0 0.00 0.00 0.00 41 1018.5
20260902025019 76 46 0.0 2.0 0.00 0.00 0.00 39 1018.5
20260902024529 76 46 0.0 2.0 0.00 0.01 0.00 39 1018.4
20260902024003 76 46 1.0 2.0 0.00 0.01 0.00 37 1018.2
20260902023505 77 19 0.0 3.0 0.00 0.01 0.00 37 1018.0
20260902023017 77 337 1.0 5.0 0.00 0.05 0.00 37 1017.8
20260902022512 77 21 2.0 6.0 0.00 0.07 0.00 37 1017.8
20260902022016 77 22 1.0 10.0 0.00 0.07 0.00 37 1017.8
20260902021525 76 350 3.0 10.0 0.00 0.07 0.00 37 1017.8
20260902021014 76 39 1.0 3.0 0.00 0.07 0.00 38 1017.7
20260902020517 76 15 1.0 2.0 0.00 0.07 0.00 38 1017.6
20260902020008 77 65 0.0 2.0 0.00 0.07 0.00 36 1017.5
20260902015508 77 187 0.0 5.0 0.00 0.07 0.00 35 1017.5
20260902015007 77 134 0.0 5.0 0.00 0.07 0.00 35 1017.6
20260902014523 77 202 0.0 2.0 0.00 0.07 0.00 37 1017.6
20260902014011 77 232 0.0 2.0 0.00 0.07 0.00 38 1017.5
20260902013515 78 165 0.0 2.0 0.00 0.07 0.00 37 1017.4
20260902013029 78 165 0.0 2.0 0.00 0.07 0.00 37 1017.3
20260902012515 79 196 0.0 2.0 0.00 0.07 0.00 38 1017.4
20260902012006 79 168 0.0 2.0 0.00 0.07 0.00 37 1017.4
20260902011518 80 93 0.0 2.0 0.00 0.07 0.00 35 1017.2
20260902011008 80 93 0.0 2.0 0.00 0.07 0.00 35 1017.1
20260902010514 81 93 0.0 3.0 0.00 0.07 0.00 35 1017.0
20260902010035 81 86 0.0 3.0 0.00 0.07 0.00 33 1016.9
20260902005518 81 69 0.0 3.0 0.00 0.07 0.00 34 1016.8
20260902005017 81 40 0.0 3.0 0.00 0.07 0.00 33 1016.8
20260902004536 81 94 1.0 3.0 0.00 0.07 0.00 32 1016.9
20260902004005 81 74 0.0 2.0 0.00 0.07 0.00 34 1016.9
20260902003507 81 92 0.0 2.0 0.00 0.07 0.00 34 1017.0
20260902003104 81 50 0.0 3.0 0.00 0.07 0.00 34 1017.0
20260902002511 81 49 1.0 3.0 0.00 0.07 0.00 32 1017.0
20260902002015 82 43 1.0 4.0 0.00 0.07 0.00 32 1017.0
20260902001534 82 86 1.0 7.0 0.00 0.07 0.00 33 1017.0
20260902001016 82 73 1.0 7.0 0.00 0.07 0.00 32 1017.0
20260902000503 83 13 2.0 6.0 0.00 0.07 0.00 30 1017.0
20260902000016 83 75 3.0 5.0 0.00 0.07 0.00 28 1016.9
20260901235508 83 13 2.0 4.0 0.00 0.07 0.00 29 1016.9
20260901235011 84 59 2.0 4.0 0.00 0.07 0.00 28 1016.9
20260901234524 84 32 1.0 4.0 0.00 0.07 0.00 29 1016.9
20260901234016 84 352 0.0 5.0 0.00 0.07 0.00 29 1016.9
20260901233520 84 34 2.0 5.0 0.00 0.07 0.00 29 1016.9
20260901233036 84 56 2.0 6.0 0.00 0.07 0.00 28 1016.9
20260901232509 85 78 3.0 6.0 0.00 0.07 0.00 28 1016.8
20260901232007 86 9 1.0 6.0 0.00 0.07 0.00 27 1016.8
20260901231516 86 300 3.0 6.0 0.00 0.07 0.00 25 1016.8
20260901231012 87 46 2.0 9.0 0.00 0.07 0.00 25 1016.9
20260901230514 87 332 3.0 15.0 0.00 0.07 0.00 24 1016.8
20260901230029 88 44 7.0 15.0 0.00 0.07 0.00 24 1016.5
20260901225517 89 293 3.0 12.0 0.00 0.07 0.00 22 1016.7
20260901225017 89 310 2.0 12.0 0.00 0.07 0.00 22 1016.7
20260901224510 89 240 3.0 10.0 0.00 0.07 0.00 21 1016.6
20260901224008 90 282 2.0 8.0 0.00 0.07 0.00 21 1016.6
20260901223512 90 174 0.0 8.0 0.00 0.07 0.00 21 1016.6
20260901223023 90 338 3.0 12.0 0.00 0.07 0.00 20 1016.7
20260901222516 90 279 3.0 12.0 0.00 0.07 0.00 20 1016.8
20260901222013 89 212 3.0 11.0 0.00 0.07 0.00 21 1016.8
20260901221539 89 218 2.0 14.0 0.00 0.07 0.00 21 1017.0
20260901221018 89 24 2.0 14.0 0.00 0.07 0.00 21 1017.0
20260901220508 88 254 1.0 15.0 0.00 0.07 0.00 21 1017.2
20260901220023 88 45 2.0 15.0 0.00 0.07 0.00 22 1017.3
20260901215512 88 248 2.0 7.0 0.00 0.07 0.00 23 1017.4
20260901215016 87 286 1.0 6.0 0.00 0.07 0.00 23 1017.4
20260901214526 86 218 1.0 4.0 0.00 0.07 0.00 23 1017.5
20260901214015 86 299 1.0 7.0 0.00 0.07 0.00 23 1017.6
20260901213504 85 253 2.0 8.0 0.00 0.07 0.00 23 1017.6
20260901213008 86 240 2.0 8.0 0.00 0.07 0.00 24 1017.7
20260901212507 86 343 2.0 6.0 0.00 0.07 0.00 23 1017.8
20260901212009 86 331 1.0 8.0 0.00 0.07 0.00 23 1017.9
20260901211521 86 238 3.0 8.0 0.00 0.07 0.00 24 1017.9
20260901211013 86 5 2.0 4.0 0.00 0.07 0.00 28 1017.9
20260901210515 86 307 1.0 4.0 0.00 0.07 0.00 28 1017.9
20260901210004 85 296 0.0 4.0 0.00 0.07 0.00 30 1018.0
20260901205504 85 38 0.0 4.0 0.00 0.07 0.00 30 1018.0
20260901205008 85 23 1.0 4.0 0.00 0.07 0.00 30 1018.1
20260901204514 85 73 0.0 4.0 0.00 0.07 0.00 31 1018.0
20260901204011 84 199 0.0 6.0 0.00 0.07 0.00 30 1018.0
20260901203514 84 131 1.0 6.0 0.00 0.07 0.00 29 1018.1
20260901203029 84 112 1.0 4.0 0.00 0.07 0.00 31 1018.1
20260901202515 84 105 0.0 7.0 0.00 0.07 0.00 30 1018.2
20260901202007 84 198 2.0 7.0 0.00 0.07 0.00 30 1018.2
20260901201508 85 149 2.0 7.0 0.00 0.07 0.00 30 1018.1
20260901201008 86 229 2.0 7.0 0.00 0.07 0.00 29 1018.2
20260901200508 86 114 2.0 4.0 0.00 0.07 0.00 30 1018.2
20260901200020 87 184 1.0 4.0 0.00 0.07 0.00 28 1018.2
20260901195511 87 244 1.0 6.0 0.00 0.07 0.00 28 1018.2
20260901195013 87 161 1.0 6.0 0.00 0.07 0.00 28 1018.2
20260901194533 87 210 1.0 7.0 0.00 0.07 0.00 27 1018.2
20260901194003 88 96 2.0 7.0 0.00 0.07 0.00 27 1018.2
20260901193506 88 268 0.0 6.0 0.00 0.07 0.00 28 1018.1
20260901193010 87 86 1.0 6.0 0.00 0.07 0.00 29 1018.1
20260901192511 87 111 2.0 4.0 0.00 0.07 0.00 28 1018.2
20260901192010 87 145 2.0 10.0 0.00 0.07 0.00 29 1018.3
20260901191535 86 251 2.0 12.0 0.00 0.07 0.00 29 1018.3
20260901191016 87 227 4.0 12.0 0.00 0.07 0.00 25 1018.3
20260901190517 88 18 3.0 9.0 0.00 0.07 0.00 25 1018.4
20260901190012 87 194 3.0 9.0 0.00 0.07 0.00 27 1018.6
20260901185509 86 248 2.0 8.0 0.00 0.07 0.00 25 1018.5
20260901185012 86 306 2.0 9.0 0.00 0.07 0.00 25 1018.8
20260901184516 86 234 4.0 9.0 0.00 0.07 0.00 25 1018.9
20260901184012 85 92 1.0 6.0 0.00 0.07 0.00 25 1019.0
20260901183514 86 360 1.0 5.0 0.00 0.07 0.00 26 1019.2
20260901183030 86 319 2.0 5.0 0.00 0.07 0.00 30 1019.3
20260901182517 85 91 1.0 10.0 0.00 0.07 0.00 27 1019.2
20260901182006 85 260 4.0 10.0 0.00 0.07 0.00 27 1019.2
20260901181510 85 153 4.0 9.0 0.00 0.07 0.00 29 1019.2
20260901181008 85 173 3.0 10.0 0.00 0.07 0.00 26 1019.3
20260901180512 85 175 3.0 12.0 0.00 0.07 0.00 27 1019.2
20260901180029 84 254 3.0 12.0 0.00 0.07 0.00 28 1019.2
20260901175515 84 202 2.0 10.0 0.00 0.07 0.00 28 1019.3
20260901175013 83 217 3.0 15.0 0.00 0.07 0.00 27 1019.5
20260901174539 83 292 6.0 20.0 0.00 0.07 0.00 28 1019.6
20260901174008 83 360 4.0 20.0 0.00 0.07 0.00 28 1019.6
20260901173508 83 233 2.0 11.0 0.00 0.07 0.00 29 1019.7
20260901173015 83 340 2.0 12.0 0.00 0.07 0.00 29 1019.9
20260901172514 82 24 4.0 12.0 0.00 0.07 0.00 30 1019.9
20260901172014 82 226 2.0 9.0 0.00 0.07 0.00 30 1020.0
20260901171528 82 112 2.0 11.0 0.00 0.07 0.00 31 1020.0
20260901171014 81 291 2.0 13.0 0.00 0.07 0.00 32 1020.0
20260901170516 81 236 6.0 19.0 0.00 0.07 0.00 32 1020.1
20260901170009 81 182 5.0 20.0 0.00 0.07 0.00 33 1020.1
20260901165510 80 211 4.0 20.0 0.00 0.07 0.00 33 1020.1
20260901165010 80 115 4.0 15.0 0.00 0.07 0.00 34 1020.2
20260901164523 79 84 3.0 10.0 0.00 0.07 0.00 34 1020.0
20260901164016 79 191 1.0 4.0 0.00 0.07 0.00 40 1020.0
20260901163515 78 334 0.0 8.0 0.00 0.07 0.00 41 1020.0
20260901163059 77 115 0.0 8.0 0.00 0.07 0.00 42 1020.0
20260901162519 77 20 3.0 7.0 0.00 0.07 0.00 44 1019.9
20260901162007 76 115 1.0 4.0 0.00 0.07 0.00 44 1020.0
20260901161514 75 336 2.0 4.0 0.00 0.07 0.00 45 1020.1
20260901161012 73 338 1.0 2.0 0.00 0.07 0.00 49 1020.1
20260901160515 72 113 0.0 2.0 0.00 0.07 0.00 54 1020.1
20260901160026 71 137 1.0 3.0 0.00 0.07 0.00 67 1020.1
20260901155517 70 51 2.0 3.0 0.00 0.07 0.00 67 1020.2